Location: The Saddle
(36.8333°N, 80.3417°W)
Time: 07:51:31
(UTC-05:00)

A-11 Canister half - Pass Details

Date: 14 December 2023
Orbit: 1512 x 1687 km, 47.2° (Epoch: 27 February)

Event Time Altitude Azimuth Distance (km) Brightness Sun altitude
Rises 20:53:52 0° 222° (SW) 4,644 11.9 -44.7°
Reaches altitude 10° 20:56:53 10° 220° (SW) 3,673 11.2 -45.3°
Enters shadow 21:00:35 28° 214° (SSW) 2,559 10.2 -46.1°
Maximum altitude 21:06:02 68° 140° (SE) 1,647 - -47.1°
Drops below altitude 10° 21:15:30 10° 60° (ENE) 3,794 - -49.0°
Sets 21:18:39 0° 58° (ENE) 4,805 - -49.7°
